WUK5605 EGKK-OEJN

Flight info

Callsign WUK5605
Flight time N/A
Altitude 31000
Route ODVIK Y311 DVR L9 KONAN UL607 KOK M150 DIK N852 SUTAL DCT GTQ DCT BEGAR DCT TRA/N0447F330 DCT SUXAN DCT LABIN DCT AIOSA DCT NOSTO UL612 ARA/N0449F350 UL612 TRL UJ65 SOKRI UB1 PLH UL604 SALUN N705 BOPIX N710 TAKRI P751 LXR M999 MUVOL
Aircraft A21N/M-SDE3FGHIRWY/LB1

Departure

Time 2026-05-08 07:43
Airport London Gatwick Airport (EGKK)

Arrival

Time N/A
Airport King Abdulaziz International Airport (OEJN)
Time Latitude Longitude Altitude Speed Heading
2026-05-08 07:43 51.13424 0.18412 10545 ft 305 kts 80°
2026-05-08 07:43 51.13784 0.21788 10777 ft 317 kts 80°
2026-05-08 07:43 51.14159 0.25308 11009 ft 329 kts 80°
2026-05-08 07:44 51.14545 0.28954 11220 ft 340 kts 80°
2026-05-08 07:44 51.14939 0.32686 11617 ft 345 kts 80°
2026-05-08 07:44 51.15335 0.36453 12105 ft 347 kts 81°
2026-05-08 07:44 51.15733 0.40242 12590 ft 349 kts 81°
2026-05-08 07:45 51.16132 0.44059 13053 ft 352 kts 81°
2026-05-08 07:45 51.16451 0.47915 13505 ft 354 kts 85°
2026-05-08 07:45 51.16599 0.51816 13960 ft 355 kts 89°
2026-05-08 07:45 51.16614 0.55747 14399 ft 358 kts 90°
2026-05-08 07:46 51.16608 0.59709 14834 ft 360 kts 91°
2026-05-08 07:46 51.16597 0.63690 15266 ft 362 kts 91°
2026-05-08 07:46 51.16587 0.67695 15689 ft 364 kts 91°
2026-05-08 07:46 51.16577 0.71726 16092 ft 367 kts 91°
2026-05-08 07:47 51.16566 0.75786 16492 ft 369 kts 92°
2026-05-08 07:47 51.16555 0.79863 16883 ft 371 kts 92°
2026-05-08 07:47 51.16543 0.83969 17271 ft 373 kts 92°
2026-05-08 07:47 51.16529 0.88103 17647 ft 375 kts 92°
2026-05-08 07:48 51.16514 0.92254 18001 ft 378 kts 92°
2026-05-08 07:48 51.16497 0.96426 18373 ft 379 kts 92°
2026-05-08 07:48 51.16479 1.00623 18733 ft 381 kts 92°
2026-05-08 07:48 51.16458 1.04849 19079 ft 384 kts 92°
2026-05-08 07:49 51.16437 1.09089 19418 ft 386 kts 92°
2026-05-08 07:49 51.16413 1.13355 19747 ft 388 kts 92°
2026-05-08 07:49 51.16388 1.17649 20071 ft 390 kts 92°
2026-05-08 07:49 51.16362 1.21955 20396 ft 392 kts 92°
2026-05-08 07:50 51.16333 1.26288 20712 ft 394 kts 92°
2026-05-08 07:50 51.16302 1.30640 21023 ft 395 kts 92°
2026-05-08 07:50 51.16263 1.35010 21330 ft 397 kts 93°
2026-05-08 07:50 51.16107 1.39393 21629 ft 398 kts 95°
2026-05-08 07:51 51.15902 1.43782 21921 ft 400 kts 95°
2026-05-08 07:51 51.15689 1.48192 22202 ft 402 kts 95°
2026-05-08 07:51 51.15472 1.52640 22477 ft 404 kts 96°
2026-05-08 07:51 51.15253 1.57097 22746 ft 406 kts 95°
2026-05-08 07:52 51.15033 1.61571 23014 ft 408 kts 95°
2026-05-08 07:52 51.14810 1.66071 23276 ft 410 kts 96°
2026-05-08 07:52 51.14585 1.70584 23531 ft 412 kts 96°
2026-05-08 07:52 51.14357 1.75126 23784 ft 413 kts 96°
2026-05-08 07:53 51.14127 1.79701 24040 ft 415 kts 96°
2026-05-08 07:53 51.13895 1.84270 24287 ft 417 kts 96°
2026-05-08 07:53 51.13660 1.88854 24531 ft 418 kts 96°
2026-05-08 07:53 51.13421 1.93457 24780 ft 419 kts 96°
2026-05-08 07:54 51.13180 1.98076 25017 ft 421 kts 96°
2026-05-08 07:54 51.12936 2.02707 25245 ft 422 kts 96°
2026-05-08 07:54 51.12690 2.07370 25471 ft 424 kts 96°
2026-05-08 07:54 51.12442 2.12032 25691 ft 425 kts 96°
2026-05-08 07:55 51.12191 2.16710 25904 ft 426 kts 96°
2026-05-08 07:55 51.11937 2.21397 26111 ft 428 kts 96°
2026-05-08 07:55 51.11681 2.26100 26317 ft 429 kts 96°
2026-05-08 07:55 51.11422 2.30810 26517 ft 430 kts 96°
2026-05-08 07:56 51.11160 2.35542 26710 ft 431 kts 96°
2026-05-08 07:56 51.10895 2.40285 26903 ft 432 kts 96°
2026-05-08 07:56 51.10628 2.45039 27087 ft 434 kts 96°
2026-05-08 07:56 51.10358 2.49807 27262 ft 435 kts 96°
2026-05-08 07:57 51.10085 2.54584 27443 ft 436 kts 96°
2026-05-08 07:57 51.09799 2.59378 27621 ft 437 kts 98°
2026-05-08 07:57 51.09229 2.64096 27791 ft 436 kts 106°
2026-05-08 07:57 51.08255 2.68648 27971 ft 435 kts 115°
2026-05-08 07:58 51.06943 2.72958 28154 ft 435 kts 119°
2026-05-08 07:58 51.05535 2.77195 28325 ft 436 kts 120°
2026-05-08 07:58 51.04104 2.81440 28482 ft 437 kts 120°
2026-05-08 07:58 51.02672 2.85685 28641 ft 439 kts 120°
2026-05-08 07:59 51.01238 2.89945 28832 ft 439 kts 120°
2026-05-08 07:59 50.99810 2.94198 29065 ft 438 kts 120°
2026-05-08 07:59 50.98383 2.98446 29290 ft 438 kts 120°
2026-05-08 07:59 50.96958 3.02687 29466 ft 438 kts 120°
2026-05-08 08:00 50.95526 3.06944 29624 ft 439 kts 120°
2026-05-08 08:00 50.94092 3.11201 29779 ft 440 kts 120°
2026-05-08 08:00 50.92655 3.15463 29938 ft 441 kts 120°
2026-05-08 08:00 50.91212 3.19735 30103 ft 442 kts 120°
2026-05-08 08:01 50.89765 3.24008 30268 ft 442 kts 120°
2026-05-08 08:01 50.88315 3.28288 30443 ft 442 kts 120°
2026-05-08 08:01 50.86863 3.32563 30610 ft 443 kts 120°
2026-05-08 08:01 50.85409 3.36837 30758 ft 444 kts 120°
2026-05-08 08:02 50.83947 3.41128 30897 ft 445 kts 120°
2026-05-08 08:02 50.82482 3.45418 31035 ft 446 kts 120°
2026-05-08 08:02 50.81011 3.49720 31043 ft 447 kts 120°
2026-05-08 08:03 50.78060 3.58330 31050 ft 448 kts 120°
2026-05-08 08:03 50.75100 3.66941 31050 ft 448 kts 120°
2026-05-08 08:04 50.72131 3.75548 31050 ft 448 kts 121°
2026-05-08 08:04 50.69151 3.84152 31050 ft 448 kts 121°
2026-05-08 08:05 50.66167 3.92745 31047 ft 448 kts 121°
2026-05-08 08:05 50.63178 4.01318 31050 ft 448 kts 121°
2026-05-08 08:06 50.60179 4.09891 31052 ft 449 kts 121°
2026-05-08 08:06 50.57171 4.18462 31055 ft 449 kts 121°
2026-05-08 08:07 50.54155 4.27029 31053 ft 450 kts 121°
2026-05-08 08:07 50.51131 4.35584 31063 ft 449 kts 121°
2026-05-08 08:08 50.48104 4.44125 31059 ft 449 kts 121°
2026-05-08 08:08 50.45070 4.52656 31059 ft 450 kts 121°
2026-05-08 08:09 50.42027 4.61181 31060 ft 450 kts 121°
2026-05-08 08:09 50.38973 4.69710 31061 ft 451 kts 121°
2026-05-08 08:10 50.35905 4.78251 31059 ft 451 kts 121°
2026-05-08 08:10 50.32831 4.86779 31061 ft 451 kts 121°
2026-05-08 08:11 50.29758 4.95277 31057 ft 451 kts 121°
2026-05-08 08:11 50.26676 5.03772 31057 ft 451 kts 121°
2026-05-08 08:12 50.23588 5.12257 31053 ft 451 kts 121°
2026-05-08 08:12 50.20491 5.20737 31060 ft 451 kts 121°
2026-05-08 08:13 50.17386 5.29207 31055 ft 452 kts 121°
2026-05-08 08:13 50.14270 5.37679 31052 ft 453 kts 121°
2026-05-08 08:14 50.11136 5.46173 31055 ft 453 kts 121°
2026-05-08 08:14 50.08004 5.54637 31052 ft 453 kts 121°
2026-05-08 08:15 50.04870 5.63077 31049 ft 452 kts 121°
2026-05-08 08:15 50.01728 5.71507 31046 ft 452 kts 122°
2026-05-08 08:16 49.98583 5.79920 31046 ft 452 kts 122°
2026-05-08 08:16 49.95430 5.88334 31048 ft 453 kts 122°
2026-05-08 08:17 49.92269 5.96740 31050 ft 453 kts 122°
2026-05-08 08:17 49.89048 6.05079 31049 ft 452 kts 127°
2026-05-08 08:18 49.84873 6.12221 31054 ft 447 kts 142°
2026-05-08 08:18 49.79701 6.17371 31059 ft 443 kts 157°
2026-05-08 08:19 49.74083 6.21196 31061 ft 442 kts 159°
2026-05-08 08:19 49.68451 6.24969 31064 ft 443 kts 158°
2026-05-08 08:20 49.62819 6.28768 31064 ft 443 kts 159°
2026-05-08 08:20 49.57153 6.32433 31066 ft 443 kts 159°
2026-05-08 08:21 49.51486 6.36071 31061 ft 443 kts 159°
2026-05-08 08:21 49.45813 6.39726 31060 ft 443 kts 159°
2026-05-08 08:22 49.40190 6.43547 31060 ft 444 kts 158°
2026-05-08 08:22 49.34561 6.47400 31052 ft 444 kts 158°
2026-05-08 08:23 49.28927 6.51232 31055 ft 444 kts 158°
2026-05-08 08:23 49.23296 6.55046 31054 ft 444 kts 158°
2026-05-08 08:24 49.17665 6.58849 31050 ft 444 kts 158°
2026-05-08 08:24 49.12033 6.62643 31056 ft 444 kts 158°
2026-05-08 08:25 49.06392 6.66433 31054 ft 444 kts 159°
2026-05-08 08:25 49.00743 6.70219 31053 ft 445 kts 158°
2026-05-08 08:26 48.95223 6.74439 31056 ft 446 kts 154°
2026-05-08 08:26 48.89772 6.78919 31051 ft 447 kts 154°
2026-05-08 08:27 48.84322 6.83383 31054 ft 446 kts 154°
2026-05-08 08:27 48.78870 6.87840 31051 ft 446 kts 154°
2026-05-08 08:28 48.73433 6.92274 31046 ft 446 kts 154°
2026-05-08 08:28 48.67981 6.96711 31047 ft 446 kts 154°
2026-05-08 08:29 48.62527 7.01137 31044 ft 447 kts 154°
2026-05-08 08:29 48.57060 7.05564 31042 ft 447 kts 154°
2026-05-08 08:30 48.51595 7.09979 31034 ft 447 kts 154°
2026-05-08 08:30 48.43400 7.16577 31033 ft 446 kts 154°
2026-05-08 08:31 48.37932 7.20965 31032 ft 447 kts 154°
2026-05-08 08:31 48.32467 7.25341 31027 ft 446 kts 154°
2026-05-08 08:32 48.26998 7.29711 31028 ft 447 kts 154°
2026-05-08 08:32 48.21525 7.34072 31024 ft 447 kts 154°
2026-05-08 08:33 48.16050 7.38423 31023 ft 446 kts 154°
2026-05-08 08:33 48.10583 7.42758 31021 ft 446 kts 154°
2026-05-08 08:34 48.05118 7.47083 31023 ft 445 kts 154°
2026-05-08 08:34 47.99653 7.51394 31026 ft 446 kts 154°
2026-05-08 08:35 47.94370 7.56196 31020 ft 450 kts 142°
2026-05-08 08:35 47.90152 7.63078 31021 ft 457 kts 125°
2026-05-08 08:36 47.87387 7.71609 31033 ft 461 kts 113°
2026-05-08 08:36 47.85167 7.80534 31030 ft 462 kts 112°
2026-05-08 08:37 47.82930 7.89473 31032 ft 462 kts 113°
2026-05-08 08:37 47.80668 7.98366 31032 ft 461 kts 113°
2026-05-08 08:38 47.78394 8.07247 31030 ft 462 kts 113°
2026-05-08 08:38 47.76106 8.16132 31029 ft 462 kts 113°
2026-05-08 08:39 47.73807 8.25034 31028 ft 465 kts 114°
2026-05-08 08:39 47.71479 8.33954 31038 ft 465 kts 115°
2026-05-08 08:40 47.68703 8.42556 31034 ft 463 kts 122°
2026-05-08 08:40 47.65261 8.50544 31038 ft 460 kts 129°
2026-05-08 08:41 47.61345 8.57969 31023 ft 458 kts 132°
2026-05-08 08:41 47.57393 8.65319 31032 ft 457 kts 133°
2026-05-08 08:42 47.53447 8.72663 31410 ft 453 kts 133°
2026-05-08 08:42 47.51516 8.76256 31941 ft 444 kts 133°
2026-05-08 08:42 47.49611 8.79799 32259 ft 441 kts 133°
2026-05-08 08:43 47.47706 8.83332 32408 ft 441 kts 133°
2026-05-08 08:43 47.45796 8.86871 32525 ft 443 kts 133°
2026-05-08 08:43 47.43879 8.90414 32667 ft 443 kts 133°
2026-05-08 08:43 47.41964 8.93950 32856 ft 443 kts 133°
2026-05-08 08:44 47.40050 8.97487 33030 ft 442 kts 134°
2026-05-08 08:44 47.38133 9.01019 33041 ft 443 kts 133°
2026-05-08 08:44 47.34299 9.08072 33055 ft 442 kts 134°
2026-05-08 08:45 47.30465 9.15110 33062 ft 443 kts 134°
2026-05-08 08:45 47.26615 9.22156 33066 ft 443 kts 134°
2026-05-08 08:46 47.22752 9.29210 33074 ft 444 kts 134°
2026-05-08 08:46 47.18880 9.36258 33072 ft 445 kts 134°
2026-05-08 08:47 47.15005 9.43298 33075 ft 444 kts 134°
2026-05-08 08:47 47.11121 9.50333 33067 ft 445 kts 134°
2026-05-08 08:48 47.07239 9.57352 33079 ft 445 kts 135°
2026-05-08 08:48 47.03345 9.64369 33089 ft 445 kts 134°
2026-05-08 08:49 46.99449 9.71372 33098 ft 445 kts 135°
2026-05-08 08:49 46.95549 9.78365 33100 ft 445 kts 135°
2026-05-08 08:50 46.91640 9.85357 33103 ft 445 kts 135°
2026-05-08 08:50 46.87731 9.92327 33100 ft 444 kts 135°
2026-05-08 08:51 46.83820 9.99290 33085 ft 444 kts 135°
2026-05-08 08:51 46.79907 10.06237 33068 ft 445 kts 135°
2026-05-08 08:52 46.75995 10.13164 33061 ft 444 kts 135°
2026-05-08 08:52 46.72081 10.20080 33060 ft 444 kts 135°
2026-05-08 08:53 46.68164 10.26979 33059 ft 443 kts 135°
2026-05-08 08:53 46.64246 10.33867 33057 ft 443 kts 135°
2026-05-08 08:54 46.60330 10.40734 33054 ft 442 kts 135°
2026-05-08 08:54 46.56403 10.47600 33039 ft 443 kts 135°
2026-05-08 08:55 46.52465 10.54439 33027 ft 443 kts 136°
2026-05-08 08:55 46.48512 10.61281 33023 ft 443 kts 136°
2026-05-08 08:56 46.44558 10.68109 33031 ft 443 kts 136°
2026-05-08 08:56 46.40606 10.74922 33036 ft 442 kts 137°
2026-05-08 08:57 46.36657 10.81707 33044 ft 442 kts 137°
2026-05-08 08:57 46.32706 10.88480 33053 ft 442 kts 137°
2026-05-08 08:58 46.28750 10.95248 33061 ft 442 kts 137°
2026-05-08 08:58 46.24798 11.01989 33069 ft 441 kts 136°
2026-05-08 08:59 46.20840 11.08725 33073 ft 441 kts 137°
2026-05-08 08:59 46.16877 11.15454 33064 ft 441 kts 136°
2026-05-08 09:00 46.12915 11.22163 33059 ft 441 kts 136°
2026-05-08 09:00 46.08949 11.28863 33047 ft 440 kts 136°
2026-05-08 09:01 46.04996 11.35529 33053 ft 440 kts 136°
2026-05-08 09:01 46.01037 11.42187 33045 ft 439 kts 136°
2026-05-08 09:02 45.97078 11.48827 33045 ft 439 kts 136°
2026-05-08 09:02 45.93118 11.55454 33040 ft 439 kts 136°
2026-05-08 09:03 45.89148 11.62080 33041 ft 439 kts 136°
2026-05-08 09:03 45.85177 11.68695 33047 ft 438 kts 137°
2026-05-08 09:04 45.81205 11.75293 33049 ft 439 kts 137°
2026-05-08 09:04 45.77228 11.81887 33046 ft 438 kts 137°
2026-05-08 09:05 45.73251 11.88459 33038 ft 439 kts 136°
2026-05-08 09:05 45.69263 11.95038 33038 ft 439 kts 136°
2026-05-08 09:06 45.65267 12.01615 33038 ft 439 kts 136°
2026-05-08 09:06 45.61271 12.08174 33028 ft 439 kts 136°
2026-05-08 09:07 45.57267 12.14738 33027 ft 440 kts 136°
2026-05-08 09:07 45.53246 12.21309 33028 ft 440 kts 136°
2026-05-08 09:08 45.49224 12.27867 33027 ft 441 kts 136°
2026-05-08 09:08 45.45190 12.34428 33026 ft 441 kts 136°
2026-05-08 09:09 45.41152 12.40979 33022 ft 441 kts 136°
2026-05-08 09:09 45.37116 12.47514 33024 ft 441 kts 136°
2026-05-08 09:10 45.33069 12.54049 33022 ft 442 kts 136°
2026-05-08 09:10 45.29019 12.60576 33016 ft 442 kts 136°
2026-05-08 09:11 45.24956 12.67103 33016 ft 442 kts 136°
2026-05-08 09:11 45.20897 12.73614 33013 ft 442 kts 136°
2026-05-08 09:12 45.16832 12.80120 33013 ft 442 kts 136°
2026-05-08 09:12 45.12763 12.86618 33012 ft 443 kts 136°
2026-05-08 09:13 45.08689 12.93104 33012 ft 442 kts 136°
2026-05-08 09:13 45.04616 12.99577 33011 ft 442 kts 136°
2026-05-08 09:14 45.00538 13.06040 33009 ft 441 kts 136°
2026-05-08 09:14 44.96381 13.12358 33011 ft 440 kts 138°
2026-05-08 09:15 44.92144 13.18558 33009 ft 440 kts 138°
2026-05-08 09:15 44.87909 13.24745 33006 ft 440 kts 138°
2026-05-08 09:16 44.83668 13.30928 33001 ft 440 kts 138°
2026-05-08 09:16 44.79411 13.37120 33012 ft 442 kts 138°
2026-05-08 09:17 44.75150 13.43303 33008 ft 441 kts 138°
2026-05-08 09:17 44.70886 13.49476 33008 ft 441 kts 138°
2026-05-08 09:18 44.66620 13.55640 33008 ft 441 kts 138°
2026-05-08 09:18 44.62346 13.61800 33013 ft 442 kts 138°
2026-05-08 09:19 44.58069 13.67949 33012 ft 442 kts 139°
2026-05-08 09:19 44.53793 13.74083 33011 ft 441 kts 139°